{"data":{"norad_id":58211,"epoch":"2026-05-25T04:55:46.648128Z","epoch_age_seconds":51062,"freshness":"FRESH","line1":"1 58211U 23170F   26145.20540102  .00000216  00000+0  17392-4 0  9996","line2":"2 58211  43.0031 121.9256 0001678 266.6762  93.3897 15.27580439142003","mean_motion":15.27580439,"eccentricity":0.0001678,"inclination_deg":43.0031,"raan_deg":121.9256,"arg_perigee_deg":266.6762,"mean_anomaly_deg":93.3897,"bstar":1.7392e-5,"rev_number":14200,"period_min":94.266721623031,"perigee_km":481.8964747097,"apogee_km":484.19908832238,"semimajor_km":6861.184781516,"source":"CELESTRAK","updated_at":"2026-05-25T13:38:18.574906Z"}}